STARLINK-1664, 46553

Orbit data source: Space-Track

STARLINK-1664, 46553 is a payload satellite owned by SpaceX/Seattle (US) in LEO that was launched on Tue, 06 Oct 2020 UTC via an FALCON 9 launch vehicle from the Air Force Eastern Test Range (AFETR). Payload-class satellites include a variety of spacecraft equipped with specific instruments for various scientific and technological missions. These include communications satellites like Starlink; space stations such as the ISS; scientific satellites like the Hubble; Earth observation satellites from companies like Planet Labs, Umbra, and HawkEye 360; GPS; miniature CubeSats for education and research; and military/defense satellites.

Loading next visibility...
Identifier
46553, 2020-070X
Orbit
LEO
Last TLE update
20 hours ago
Origin
Manufacturer
SpaceX/Seattle
Mission
Operational Commercial Communications
Bus & Motor
STARLINK, Unknown motor
Mass
260 kg wet, ~248 kg dry
Launch date (UTC)
2020-10-06 (5 years ago)
Launch vehicle
FALCON 9
Launch site
Air Force Eastern Test Range (AFETR)
Object type
Payload
Rocket body
Debris
Shape & HBR
Box + 1 Pan, 8.86 m
Radar Cross Section
13.562 m², Large (>1 m²)

Expand to show TLE details & history

TLE from 20 hours ago
0 STARLINK-1664
1 46553U 20070X   25181.45032125  .00000700  00000-0  65856-4 0  9992
2 46553  53.0538 198.9746 0001125  80.7878 279.3238 15.06400913261901
Epoch: 2025-06-30T10:48Z
TLE epoch observation values (Epoch: 2025-06-30T10:48:27.756Z)
Latitude
-0.00001°
Longitude
118.09899°
Altitude
547.962 km
Speed
7.589 km/s
True Right ascension
13h 15m 53s
True Declination
0° 00' 00"
Sunlit
Object was in daylight at epoch
Visualization orbit readout
Latitude
7.91176°
Longitude
-71.58316°
Altitude
547.358 km
Speed
7.59 km/s
Apparent Right ascension
02h 52m 39s
Apparent Declination
-19° 37' 36"
Sunlit
Object is in daylight
Visualization observer readout
Local Sidereal Time
18:17:51
Azimuth
80.709° E
Elevation
-41.852°
Doppler factor
1
Orbital elements
Apogee altitude
548.259 km
Perigee altitude
546.7 km
Semi-major axis
6,925.617 km
Eccentricity
0.00011
Inclination
53.0538°
RAAN
198.9746°
Arg. of periapsis
80.7878°
True anomaly
Unknown
Mean anomaly
279.3238°
Eccentric anomaly
Unknown
Mean motion
3.76578 °/min
Orbital period
95.6 mins
BSTAR
0.000065856
Loading maneuver chart data...
Loading SW <> Apogee altitude chart data...
Loading historical data...
Loading historical data...
Loading historical data...
Loading historical data...
Loading historical data...
Loading historical data...
Loading historical data...

STARLINK-1664 Visibility forecast

Observer location: undefined°, undefined°

Span
Click to sort rows by Start time (UTC) header in descending order
Start Az.
Max El. time (UTC)
Max El. Az.
Max El.
End time (UTC)
End Az.
5 mins2025-07-01 09:35:01.572Z347.105° N2025-07-01 09:37:01.572Z37.334° NE26.327°2025-07-01 09:40:01.572Z88.53° E
6 mins2025-07-01 11:14:01.572Z289.378° WNW2025-07-01 11:16:01.572Z241.592° WSW35.423°2025-07-01 11:20:01.572Z153.144° SSE
5 mins2025-07-02 02:47:01.572Z181.696° SSW2025-07-02 02:49:01.572Z137.351° SSE27.851°2025-07-02 02:52:01.572Z74.488° E
6 mins2025-07-02 04:26:01.572Z267.211° W2025-07-02 04:29:01.572Z342.124° N31.321°2025-07-02 04:32:01.572Z35.351° NE
|